Temperature
20 20 20 20 23 24 24 23 23 23 23 22 22 22 22 22 22 20 17 17 17 17 17 17 17 17 17 17 17 17 17 17 17 17 17 17 17 17 17 17 17 17 17 17 17 17 17 17 17
20 20 20 22 25 24 23 23 23 23 22 21 21 22 22 20 19 18 17 17 17 17 17 16 17 17 17 17 17 17 17 17 17 17 17 17 17 17 17 17 17 17 17 17 17 17 17 17 17
20 20 22 24 24 24 23 23 23 22 21 22 21 21 21 19 18 17 17 17 16 16 16 17 17 17 17 17 17 17 17 16 17 17 17 17 17 17 17 17 17 17 17 17 17 17 17 17 17
20 21 23 24 23 23 23 23 23 23 22 21 21 21 19 17 17 17 17 17 16 16 16 16 17 17 17 17 17 17 17 16 16 16 17 17 17 17 17 17 16 17 17 17 17 17 17 17 17
20 23 24 23 23 23 23 23 23 23 22 21 21 21 19 17 17 17 16 16 16 16 16 16 17 17 17 17 17 17 16 16 16 16 16 16 16 16 16 16 16 16 16 16 16 17 17 17 17
22 24 24 23 23 23 23 22 23 23 22 21 21 21 18 17 17 16 16 16 16 16 16 16 17 17 17 17 16 16 16 16 16 16 16 16 16 16 16 16 16 16 16 16 16 16 16 17 17
23 24 23 23 22 23 23 22 22 23 22 21 21 21 18 17 17 16 16 16 16 16 16 16 16 16 16 16 16 16 16 16 16 16 16 16 16 16 16 16 16 16 16 16 16 16 16 16 16
22 24 23 23 23 22 22 22 21 22 21 20 20 20 19 17 16 16 16 16 16 16 16 16 16 16 16 16 16 16 16 16 16 16 16 16 16 16 16 16 16 16 16 16 16 16 16 16 16
22 24 23 23 23 22 22 22 21 20 20 19 19 19 18 17 17 16 16 16 16 16 16 16 16 16 16 16 16 16 16 16 16 16 16 16 15 15 16 15 16 16 16 16 16 16 16 16 16
23 23 22 23 23 23 22 22 21 21 21 20 19 18 17 17 17 17 17 17 16 16 16 16 16 16 16 16 16 16 16 16 15 15 15 15 15 15 15 16 16 16 16 16 16 16 16 16 15
23 22 22 22 22 22 22 21 21 22 21 20 19 18 17 17 17 17 17 17 17 16 16 16 16 16 16 16 16 16 16 15 15 15 15 15 15 15 15 15 15 15 15 15 15 15 15 15 15
23 22 22 22 21 21 22 21 21 21 21 20 19 18 17 17 17 17 17 17 17 16 16 16 16 16 16 16 16 16 16 15 15 15 15 15 15 15 15 15 15 15 15 15 15 15 15 15 15
22 22 21 21 21 21 21 21 21 20 19 19 18 18 17 17 17 17 17 17 16 16 16 16 16 16 16 16 16 15 15 15 15 15 15 15 15 15 15 15 15 15 15 15 15 15 15 15 15
22 22 21 21 21 21 21 21 20 20 19 19 18 18 18 17 17 17 17 17 17 16 16 16 16 16 16 16 16 15 15 15 15 15 15 15 15 15 15 15 15 15 15 15 15 15 15 15 15
21 22 22 22 22 21 21 21 21 20 19 19 18 18 17 17 17 17 17 17 17 16 16 16 16 16 16 15 15 15 15 15 15 15 15 15 15 15 15 15 15 14 14 15 15 15 15 15 14
23 23 22 22 22 21 22 21 21 20 19 19 19 18 17 17 17 17 17 17 16 16 16 16 16 16 15 15 15 15 15 15 15 15 15 15 14 14 14 14 14 14 14 14 14 14 14 14 14
23 22 22 22 22 22 22 21 21 20 20 19 19 18 18 17 17 17 17 16 16 16 16 16 16 15 15 15 15 15 15 15 15 14 14 14 14 14 14 14 14 14 14 14 14 14 14 14 14
22 23 22 22 22 22 22 22 22 20 20 20 19 19 18 18 17 17 16 16 16 16 16 16 16 15 15 15 15 15 15 14 14 14 14 14 14 14 14 14 14 14 14 14 14 14 14 14 14
23 22 22 22 22 22 22 22 22 21 20 20 20 19 19 18 17 17 16 16 16 16 16 16 15 15 15 15 15 15 14 14 14 14 14 14 14 14 14 14 14 14 14 14 13 14 14 14 14
22 22 22 22 22 22 22 22 22 21 21 20 20 19 19 18 17 17 16 16 16 16 16 15 15 15 15 15 15 14 14 14 14 14 14 14 14 14 14 14 14 14 14 14 14 13 13 13 13
22 22 22 22 21 21 22 22 22 22 20 20 19 19 19 18 18 17 16 16 16 16 16 15 15 15 15 15 14 14 14 14 14 14 14 14 14 14 14 14 14 14 14 13 13 13 13 13 13
22 22 22 21 21 22 22 22 23 22 21 20 20 19 19 18 18 17 16 16 16 16 15 15 15 15 15 14 14 14 14 14 14 14 13 13 13 13 13 13 13 13 13 13 13 13 13 13 13
22 21 21 21 22 22 22 22 23 22 21 21 20 19 19 18 18 17 16 16 16 16 15 15 15 15 15 14 14 14 14 14 14 13 13 13 13 13 13 13 13 13 13 13 13 13 13 13 13
21 21 21 21 22 21 22 22 22 22 22 21 20 19 18 18 17 17 16 16 16 15 15 15 15 15 15 14 14 14 14 14 13 13 13 13 13 13 13 13 13 13 13 13 13 13 13 13 13
21 22 21 21 21 21 21 21 22 22 21 20 20 19 18 17 17 17 16 16 15 15 15 15 15 14 14 14 14 14 14 14 14 13 13 13 13 13 13 13 13 13 12 12 12 12 12 12 12
22 22 21 21 21 22 21 21 22 21 20 19 19 18 17 17 17 16 16 15 15 15 15 15 15 14 14 14 14 14 14 13 13 13 13 13 13 13 12 12 12 12 12 12 12 12 12 12 12
21 22 22 22 21 21 22 22 21 20 20 19 18 18 17 17 16 16 15 15 15 15 15 15 14 14 14 14 14 14 13 13 13 13 13 13 12 12 12 12 12 12 12 12 12 12 12 12 12
21 22 21 21 20 20 21 21 21 20 20 19 19 18 17 16 16 15 15 14 14 14 14 14 14 14 14 13 13 13 13 13 13 13 12 12 12 12 12 12 11 11 12 12 11 11 11 11 11
21 21 21 21 21 20 20 21 21 20 20 19 19 18 17 16 15 15 14 14 14 14 14 14 13 13 13 13 13 13 13 13 13 12 12 12 12 12 12 11 11 11 11 11 11 11 11 11 11
21 21 21 20 21 20 20 21 20 20 19 18 18 17 16 16 15 14 14 13 13 13 13 13 13 13 13 13 12 12 13 12 12 12 12 12 11 11 11 11 11 11 11 11 10 10 10 10 10
Wind_Speed
2 2 2 2 2 3 5 5 4 4 4 5 5 5 5 5 5 5 4 4 4 5 5 6 7 7 7 7 7 7 7 7 7 8 8 8 8 8 9 9 9 10 10 9 9 9 10 10 10
1 1 2 1 1 4 5 4 5 6 5 6 5 5 5 6 5 5 4 4 4 5 5 6 7 7 7 7 7 7 7 7 7 7 8 8 8 8 9 9 9 10 10 9 9 9 10 10 10
2 1 1 1 3 4 5 5 6 7 6 4 4 4 4 4 4 4 4 5 5 6 6 8 7 6 6 6 7 7 7 8 8 8 8 8 8 8 9 10 10 10 10 10 9 9 9 9 9
2 1 1 3 7 6 5 5 5 6 5 4 4 5 5 5 3 5 6 6 6 6 6 8 7 7 6 7 7 8 7 8 8 8 8 9 9 9 10 10 11 11 11 10 10 9 9 9 8
1 1 4 5 6 6 5 4 4 5 4 5 5 6 5 5 7 8 7 6 6 6 6 8 7 7 7 8 8 9 9 9 8 8 9 9 9 10 10 10 11 11 11 11 10 10 10 10 9
1 1 4 6 6 5 4 3 4 6 6 5 5 6 5 6 7 7 7 6 6 6 6 7 8 7 7 8 9 10 10 10 9 8 8 9 10 10 10 10 10 11 11 11 11 10 10 9 9
2 3 4 6 6 5 4 3 3 5 6 4 3 5 6 6 6 6 7 6 6 5 5 5 6 7 7 8 8 9 9 9 8 7 8 9 10 10 10 10 10 10 11 11 11 11 10 10 9
1 3 5 4 5 4 3 4 3 3 4 4 2 3 6 7 7 6 6 6 6 5 5 5 6 6 6 7 8 8 9 9 8 7 8 8 9 10 9 9 10 10 10 10 10 10 10 9 9
1 3 4 4 4 4 4 4 3 3 5 4 3 4 8 10 9 7 6 6 6 5 4 4 5 6 6 7 7 7 7 7 5 7 8 6 7 8 8 11 10 10 9 9 9 9 9 8 9
1 2 3 2 3 4 4 3 4 4 5 5 6 7 10 10 9 8 7 6 6 5 5 4 5 5 5 5 5 5 6 6 6 7 7 6 6 6 7 9 8 8 8 8 8 7 6 3 6
2 3 3 3 3 4 4 3 3 4 3 4 7 10 11 10 8 7 6 5 5 5 5 4 4 5 5 4 4 4 4 5 6 7 6 5 5 5 5 4 5 5 4 5 5 4 5 5 5
3 3 2 2 2 3 3 3 3 3 3 4 7 10 11 9 8 6 6 5 5 5 4 4 4 4 4 4 4 3 3 4 4 5 6 4 4 3 4 4 4 3 3 3 4 3 5 5 5
4 3 3 3 3 3 3 3 3 3 3 6 9 10 9 8 7 6 5 6 5 5 4 4 3 3 3 4 3 3 3 4 5 4 4 4 3 3 4 4 4 4 3 3 3 3 4 4 4
4 4 3 2 3 3 3 2 3 3 5 8 9 9 8 7 7 6 6 5 5 5 5 4 3 3 3 3 3 3 3 3 3 4 4 4 3 3 3 3 4 4 3 3 3 3 3 3 4
5 4 3 2 3 3 4 3 4 5 7 8 8 7 7 7 6 6 5 5 5 5 5 5 4 3 3 3 3 3 3 3 3 3 3 4 3 3 3 3 3 3 3 3 3 3 2 2 3
5 4 3 2 3 4 5 3 4 6 8 8 7 7 6 6 6 5 5 5 5 5 5 5 4 3 3 3 3 3 3 3 3 3 3 4 3 3 3 2 2 3 2 2 2 2 2 2 2
5 5 4 3 3 4 6 4 4 7 9 8 8 7 7 6 6 6 6 5 5 5 5 5 4 4 3 3 3 3 3 3 3 3 3 3 4 3 2 2 2 2 2 2 2 2 2 2 2
4 5 4 3 3 5 7 6 6 7 9 9 9 9 8 8 7 7 6 6 5 5 5 5 5 4 4 3 3 3 3 2 2 2 3 3 3 3 2 1 2 2 1 1 1 2 1 1 1
4 5 5 3 2 5 7 7 7 7 9 9 9 9 9 9 8 7 7 7 6 6 5 5 4 4 3 3 2 2 2 2 2 2 2 2 2 2 2 2 2 2 1 1 1 1 1 1 1
6 7 5 3 2 4 6 7 7 8 9 9 9 10 10 9 9 8 8 8 7 7 6 5 4 4 3 2 2 2 2 1 1 1 1 2 2 2 2 2 1 1 1 1 1 0 1 1 1
7 8 6 4 3 5 6 7 7 7 7 7 8 9 10 11 11 10 9 9 8 7 6 5 4 4 4 3 2 2 2 2 2 1 1 1 1 1 1 1 1 1 1 1 1 1 2 1 1
7 5 5 5 6 4 5 5 5 6 7 7 8 9 10 11 11 10 10 9 8 7 6 5 5 4 4 4 3 3 2 2 1 1 1 1 0 0 0 1 1 1 1 1 2 2 2 2 2
4 3 5 6 7 7 6 6 3 5 6 7 8 9 10 10 11 11 10 9 8 7 6 6 5 5 4 4 4 3 2 2 1 1 1 1 0 0 0 1 1 1 1 2 2 2 2 2 2
5 5 5 6 6 7 6 7 4 3 5 5 7 8 9 9 10 10 9 8 7 7 6 6 6 5 5 5 4 4 3 2 2 2 1 1 0 0 1 1 1 1 1 2 2 2 2 2 3
7 6 4 5 5 4 3 6 3 1 1 3 5 7 8 9 8 8 9 9 8 7 7 6 6 6 5 5 4 4 3 3 3 2 2 1 1 0 0 1 1 1 2 2 1 2 2 2 3
9 9 6 4 5 4 5 6 2 1 0 2 3 5 7 8 7 7 8 8 7 7 7 7 7 6 6 5 5 4 3 2 2 2 2 2 1 1 1 1 1 1 2 2 1 2 2 2 3
7 8 6 6 6 6 5 4 3 1 1 1 3 5 7 7 7 6 6 6 7 7 7 7 7 6 5 5 5 3 3 3 2 2 2 2 1 1 1 1 1 1 1 2 2 2 2 2 3
5 5 5 6 5 6 5 6 4 2 2 2 3 5 6 6 6 6 6 5 5 5 5 5 5 5 5 4 4 3 3 3 3 2 2 2 1 1 1 1 2 1 1 1 1 2 2 2 2
6 7 6 6 7 6 6 3 0 1 1 2 3 4 5 6 6 6 5 5 5 4 4 4 5 4 4 4 4 3 3 2 2 2 2 2 1 1 1 1 1 1 1 1 1 2 2 3 3
7 7 8 8 7 7 7 3 3 1 0 1 2 3 4 5 5 6 6 5 5 4 4 3 3 3 3 3 3 3 3 3 3 3 2 2 2 1 1 1 1 1 1 1 2 2 2 3 3
Wind_Direction
179 175 227 244 184 108 88 80 82 97 87 78 79 80 82 53 36 72 84 88 87 95 92 97 82 81 79 77 78 75 76 76 75 73 72 75 79 82 80 79 79 77 74 73 72 74 75 76 75
180 195 231 247 158 120 98 90 89 79 99 111 90 79 76 65 51 80 95 90 97 90 86 79 81 78 74 73 75 72 71 71 74 76 74 74 77 79 78 77 79 77 76 75 75 74 73 73 75
150 269 308 88 89 93 105 100 100 96 98 114 97 67 58 65 74 82 94 110 101 89 84 82 78 72 70 71 72 69 68 68 70 74 76 74 75 76 76 76 77 75 74 74 76 76 73 74 75
199 187 148 108 98 82 88 103 124 126 104 85 107 91 80 59 71 94 108 111 101 90 83 82 73 72 74 73 70 65 71 76 74 70 74 77 77 76 77 77 74 72 72 74 76 74 72 74 75
212 155 129 118 104 98 91 88 124 118 112 100 106 99 91 76 87 102 107 105 97 91 84 84 73 74 73 74 69 67 75 79 77 72 73 77 77 77 81 81 78 73 69 69 70 71 71 72 74
158 162 138 126 117 110 99 95 120 106 106 109 108 108 94 103 105 108 108 105 97 93 88 91 88 81 74 71 68 68 73 75 75 76 78 80 79 80 84 83 81 77 73 69 66 68 71 72 75
122 116 115 120 126 119 102 110 111 110 105 100 108 112 118 123 115 119 114 109 101 94 89 86 90 93 89 73 65 66 68 69 70 81 87 88 85 83 82 82 81 81 78 72 68 67 69 70 73
107 134 127 124 131 117 110 125 112 103 102 100 112 121 136 138 133 127 118 112 106 96 89 81 80 80 85 85 74 67 65 61 62 82 95 100 104 99 90 88 78 78 79 76 72 69 69 70 71
200 145 130 128 130 123 130 135 116 106 116 108 95 99 124 136 140 134 123 114 103 87 82 77 77 74 73 74 81 83 76 62 72 101 105 111 98 96 97 76 75 73 75 76 76 75 76 80 84
153 129 115 98 113 124 129 132 138 142 126 119 118 114 127 138 143 140 129 119 109 93 79 75 74 73 76 72 75 75 74 68 69 87 92 88 84 82 84 94 86 80 82 88 79 81 92 83 84
114 109 119 112 116 127 134 135 153 159 131 142 145 143 145 147 149 145 134 124 114 107 94 80 78 76 76 78 70 74 73 66 62 66 76 79 81 88 86 90 99 96 98 88 93 96 71 69 69
122 98 119 126 131 139 136 144 137 144 125 129 139 145 150 154 153 150 142 133 122 109 103 95 84 84 79 80 75 74 74 70 67 60 65 74 74 70 74 72 69 70 71 71 70 68 73 66 67
133 126 114 126 129 129 125 130 131 132 123 137 142 149 155 157 157 152 146 139 131 122 117 108 97 92 89 88 82 79 71 67 72 61 55 67 73 74 73 77 68 62 61 70 70 69 67 61 58
132 136 138 143 149 153 149 160 175 156 149 148 152 157 159 161 164 160 157 146 137 132 128 118 113 98 93 97 98 85 79 79 73 66 50 59 68 72 69 67 62 53 51 52 62 69 66 59 56
149 152 162 173 181 171 169 186 179 164 161 160 164 165 164 167 171 169 161 154 145 137 133 124 118 108 102 97 88 88 93 89 76 67 50 53 58 66 68 55 55 48 45 54 54 64 55 63 67
190 202 203 187 211 202 218 211 163 166 173 174 177 174 174 175 177 169 163 158 149 142 135 127 127 125 113 101 94 94 90 82 79 68 55 51 56 62 60 53 46 44 41 41 48 42 49 62 62
211 220 217 199 197 203 217 226 188 184 191 188 189 189 186 181 182 173 168 163 156 149 141 135 133 130 124 116 109 93 93 83 76 69 61 50 54 53 65 50 35 44 39 40 39 40 31 48 55
218 227 226 221 193 209 222 225 205 194 203 201 195 194 190 188 185 177 171 165 161 155 150 144 135 138 134 132 125 107 100 91 81 72 65 54 41 42 51 53 40 36 36 38 40 51 45 40 32
243 236 239 243 225 227 233 234 221 201 207 208 201 197 193 187 177 172 171 170 167 163 160 151 150 142 140 141 144 134 128 109 103 90 85 78 62 41 45 35 42 30 30 23 29 61 68 48 13
231 237 240 231 215 241 249 249 229 210 212 212 207 200 194 186 181 176 175 175 174 169 165 163 162 154 153 151 151 155 148 141 114 107 91 72 61 52 43 39 41 40 26 8 3 355 304 343 316
234 241 240 240 240 234 254 241 219 207 207 208 212 205 198 193 191 183 181 180 179 178 172 171 171 164 164 167 164 155 146 153 143 143 126 76 58 52 49 43 38 27 336 299 286 264 264 281 297
236 233 231 232 245 248 237 263 221 201 199 205 206 203 201 196 196 189 185 184 185 183 178 178 176 173 172 177 183 182 188 184 181 175 147 136 81 50 11 360 352 335 318 301 278 268 267 268 270
236 197 215 235 253 259 236 252 229 191 215 215 209 203 201 197 196 192 190 187 185 182 180 180 176 174 176 184 185 203 201 191 179 175 168 179 153 242 271 284 287 295 290 293 290 278 268 259 269
183 186 200 223 243 250 242 246 249 210 229 220 205 201 200 197 195 195 189 184 181 176 173 177 179 177 178 184 186 197 194 191 179 177 173 188 175 261 336 314 287 283 286 287 284 268 262 260 261
209 223 229 225 226 243 207 241 248 338 257 236 213 200 196 194 192 190 188 185 181 179 176 180 181 181 182 186 190 194 193 196 190 184 191 205 206 206 336 310 290 296 296 291 285 270 272 266 259
215 230 247 260 258 255 216 234 206 72 327 231 214 194 188 187 187 188 188 183 179 179 177 180 183 184 186 191 194 193 188 196 193 195 196 200 215 221 256 272 289 286 291 288 281 271 270 279 270
216 228 252 270 274 266 233 217 205 182 166 177 181 176 181 183 181 179 175 174 174 175 175 177 180 182 185 190 188 186 187 189 191 200 203 207 222 230 250 262 267 275 272 278 275 272 273 279 277
241 220 220 237 254 256 249 240 232 211 227 183 180 179 177 176 174 171 167 163 163 161 165 171 174 179 183 183 182 179 183 185 193 196 200 204 213 222 245 262 265 268 273 273 274 279 290 281 282
200 211 227 237 250 263 265 242 115 220 209 208 195 181 174 171 166 161 154 150 145 146 151 157 168 174 180 186 188 187 186 189 193 201 202 216 215 210 235 256 266 281 279 280 278 279 284 277 277
230 231 229 241 243 247 265 263 90 116 104 190 188 173 170 166 163 158 153 151 149 146 143 152 161 170 176 188 195 195 196 197 200 205 206 210 218 217 239 248 265 283 284 287 289 288 278 275 278
Height
1500 1500 1500 1502 1501 1501 1506 1507 1505 1507 1508 1511 1512 1511 1512 1514 1517 1525 1525 1524 1524 1525 1524 1524 1523 1523 1522 1522 1521 1521 1521 1520 1520 1520 1520 1520 1520 1520 1519 1519 1519 1518 1518 1517 1517 1517 1516 1516 1516
1501 1501 1503 1503 1499 1506 1511 1507 1508 1508 1511 1513 1514 1514 1515 1518 1521 1523 1524 1524 1525 1525 1526 1525 1524 1524 1523 1523 1522 1521 1521 1521 1521 1521 1521 1521 1521 1521 1521 1521 1520 1520 1519 1519 1518 1518 1518 1518 1518
1502 1502 1505 1501 1502 1506 1510 1508 1509 1511 1513 1514 1515 1517 1518 1522 1523 1524 1525 1525 1526 1526 1527 1526 1525 1525 1524 1523 1522 1521 1521 1521 1521 1522 1522 1522 1522 1522 1522 1522 1522 1521 1521 1520 1520 1520 1520 1520 1519
1504 1505 1505 1503 1508 1508 1508 1509 1510 1512 1514 1515 1516 1518 1522 1524 1525 1525 1525 1526 1527 1527 1528 1527 1526 1526 1525 1524 1522 1520 1519 1520 1521 1522 1523 1523 1523 1523 1523 1523 1523 1523 1522 1522 1522 1521 1521 1521 1521
1504 1505 1503 1507 1509 1509 1510 1511 1511 1511 1513 1516 1517 1519 1523 1526 1526 1526 1527 1528 1528 1528 1529 1528 1527 1527 1526 1525 1523 1521 1519 1520 1522 1523 1524 1524 1525 1525 1525 1525 1524 1524 1524 1524 1523 1523 1523 1523 1523
1506 1503 1505 1510 1511 1511 1511 1513 1512 1513 1515 1517 1518 1520 1525 1527 1527 1528 1528 1529 1529 1529 1530 1529 1528 1528 1527 1527 1525 1523 1522 1522 1523 1524 1525 1526 1526 1526 1526 1526 1526 1526 1526 1525 1525 1524 1524 1524 1524
1506 1503 1506 1508 1511 1512 1513 1514 1514 1514 1516 1519 1520 1521 1526 1528 1528 1529 1530 1530 1530 1531 1531 1531 1531 1530 1529 1528 1527 1526 1525 1525 1524 1525 1526 1527 1527 1528 1528 1528 1528 1527 1527 1527 1526 1526 1526 1526 1525
1507 1505 1507 1508 1512 1513 1514 1515 1516 1516 1518 1521 1521 1522 1526 1528 1529 1530 1531 1531 1532 1532 1532 1532 1532 1532 1531 1530 1529 1528 1527 1525 1524 1524 1526 1528 1529 1529 1530 1530 1529 1529 1529 1529 1528 1528 1527 1527 1527
1507 1507 1510 1510 1511 1513 1515 1515 1518 1519 1520 1522 1523 1524 1526 1528 1529 1531 1532 1532 1533 1533 1533 1533 1533 1533 1533 1532 1531 1530 1529 1526 1523 1523 1526 1529 1531 1532 1532 1532 1531 1531 1531 1530 1530 1530 1529 1529 1529
1507 1508 1511 1511 1511 1513 1515 1516 1518 1519 1520 1522 1524 1526 1527 1528 1530 1531 1532 1533 1533 1534 1534 1534 1534 1534 1534 1533 1533 1533 1532 1530 1528 1528 1529 1531 1533 1533 1533 1533 1533 1532 1532 1532 1531 1531 1531 1531 1531
1508 1510 1511 1513 1514 1515 1515 1517 1518 1518 1519 1522 1523 1526 1527 1529 1530 1531 1532 1533 1534 1535 1535 1535 1535 1535 1535 1535 1534 1534 1534 1533 1532 1532 1533 1534 1534 1535 1535 1535 1535 1535 1534 1534 1533 1533 1533 1533 1532
1510 1512 1513 1514 1516 1516 1516 1518 1519 1519 1522 1523 1524 1526 1527 1529 1530 1531 1533 1534 1535 1535 1536 1536 1536 1536 1536 1536 1536 1536 1536 1535 1535 1534 1535 1536 1536 1536 1536 1536 1536 1536 1536 1535 1535 1534 1534 1534 1534
1511 1513 1515 1516 1516 1517 1518 1518 1520 1521 1523 1524 1525 1527 1528 1529 1531 1532 1533 1534 1535 1535 1536 1537 1537 1537 1537 1537 1537 1537 1537 1537 1537 1536 1537 1537 1537 1537 1537 1537 1537 1537 1536 1536 1536 1536 1536 1535 1535
1512 1514 1515 1516 1517 1518 1518 1519 1520 1522 1523 1524 1526 1527 1528 1529 1531 1532 1533 1534 1535 1536 1536 1537 1537 1538 1538 1538 1538 1538 1538 1537 1538 1538 1538 1538 1538 1538 1538 1538 1538 1538 1537 1537 1537 1537 1536 1536 1536
1513 1513 1514 1515 1516 1517 1518 1518 1519 1521 1523 1524 1525 1527 1528 1530 1531 1532 1533 1534 1535 1536 1536 1537 1537 1538 1538 1538 1538 1538 1538 1539 1539 1538 1539 1539 1539 1539 1539 1539 1539 1538 1538 1538 1538 1537 1537 1536 1536
1511 1511 1513 1514 1514 1516 1518 1518 1518 1520 1522 1523 1525 1526 1528 1529 1530 1531 1532 1534 1535 1536 1536 1537 1537 1538 1538 1538 1538 1539 1539 1539 1539 1539 1539 1540 1540 1540 1539 1539 1539 1539 1538 1538 1538 1538 1537 1537 1537
1509 1511 1512 1513 1512 1513 1514 1515 1516 1519 1520 1521 1523 1525 1527 1528 1530 1531 1532 1533 1534 1535 1536 1537 1537 1538 1538 1538 1539 1539 1539 1539 1539 1539 1539 1540 1540 1540 1540 1539 1539 1539 1538 1538 1538 1538 1538 1537 1537
1510 1509 1510 1511 1510 1511 1512 1512 1514 1517 1519 1519 1521 1523 1525 1526 1528 1530 1531 1532 1533 1535 1536 1536 1537 1537 1538 1538 1539 1539 1539 1540 1540 1539 1539 1539 1539 1540 1540 1539 1539 1539 1539 1538 1538 1538 1537 1537 1537
1505 1507 1509 1509 1509 1511 1510 1509 1510 1514 1516 1517 1519 1521 1523 1525 1527 1528 1530 1531 1533 1534 1535 1536 1536 1537 1537 1538 1538 1539 1539 1539 1540 1539 1540 1539 1539 1540 1539 1539 1539 1539 1539 1538 1538 1538 1538 1537 1537
1507 1508 1508 1509 1509 1509 1508 1507 1507 1510 1513 1514 1516 1518 1520 1522 1525 1527 1528 1530 1531 1533 1534 1535 1536 1536 1537 1537 1538 1538 1539 1539 1539 1539 1539 1539 1539 1539 1539 1539 1539 1538 1538 1538 1538 1537 1537 1537 1537
1506 1507 1507 1509 1510 1508 1509 1507 1505 1506 1510 1513 1514 1515 1518 1520 1522 1525 1526 1528 1530 1531 1532 1534 1535 1535 1536 1536 1537 1538 1538 1538 1539 1539 1539 1539 1539 1539 1538 1539 1538 1538 1538 1538 1537 1537 1536 1537 1536
1506 1504 1506 1508 1509 1507 1508 1509 1500 1501 1506 1509 1511 1513 1515 1518 1520 1522 1524 1526 1528 1529 1531 1532 1533 1534 1535 1535 1536 1537 1537 1538 1538 1538 1538 1538 1538 1538 1538 1538 1537 1537 1537 1537 1536 1536 1536 1536 1536
1503 1505 1506 1507 1507 1507 1505 1506 1499 1499 1502 1505 1507 1510 1512 1515 1518 1520 1522 1524 1526 1528 1529 1531 1532 1533 1534 1534 1535 1536 1536 1537 1537 1537 1537 1537 1537 1537 1537 1537 1536 1536 1536 1535 1535 1535 1535 1534 1535
1504 1505 1506 1505 1505 1510 1503 1505 1501 1496 1498 1501 1504 1507 1510 1512 1515 1518 1520 1522 1524 1526 1527 1529 1530 1531 1532 1533 1534 1534 1535 1535 1536 1536 1536 1536 1536 1536 1536 1535 1535 1535 1534 1534 1533 1533 1533 1533 1533
1502 1504 1510 1510 1510 1506 1501 1504 1500 1495 1498 1500 1502 1505 1508 1510 1513 1515 1517 1520 1521 1523 1525 1526 1528 1529 1530 1531 1532 1533 1534 1534 1535 1535 1535 1535 1535 1535 1534 1534 1534 1533 1533 1532 1532 1532 1531 1531 1531
1499 1499 1508 1513 1509 1503 1501 1502 1496 1497 1500 1501 1502 1504 1506 1508 1511 1513 1515 1517 1519 1521 1522 1524 1526 1527 1528 1529 1530 1531 1532 1533 1533 1534 1534 1534 1534 1533 1533 1532 1532 1531 1531 1531 1530 1530 1529 1529 1529
1498 1498 1496 1501 1502 1505 1497 1494 1494 1496 1498 1500 1501 1503 1504 1507 1509 1511 1513 1515 1517 1518 1520 1522 1523 1525 1526 1527 1528 1529 1530 1531 1531 1532 1532 1532 1532 1531 1531 1531 1530 1530 1529 1529 1528 1528 1527 1527 1527
1496 1495 1499 1502 1508 1507 1500 1495 1494 1495 1496 1498 1500 1501 1504 1506 1508 1510 1511 1513 1515 1516 1518 1520 1521 1522 1524 1525 1526 1526 1527 1528 1529 1529 1530 1530 1530 1529 1529 1529 1528 1528 1527 1527 1526 1526 1525 1525 1524
1497 1498 1496 1496 1497 1503 1504 1497 1490 1492 1495 1497 1499 1501 1503 1505 1506 1508 1510 1512 1513 1514 1516 1517 1519 1520 1522 1522 1523 1524 1525 1526 1526 1527 1527 1527 1527 1527 1527 1526 1526 1525 1525 1524 1524 1523 1522 1522 1521
1492 1492 1493 1499 1497 1496 1498 1497 1492 1494 1495 1497 1499 1500 1502 1504 1506 1507 1509 1511 1512 1513 1514 1516 1517 1518 1519 1520 1521 1521 1522 1523 1523 1524 1524 1524 1524 1524 1524 1524 1524 1523 1523 1522 1521 1521 1520 1519 1518